Date String (YYYY-MM-DD hh:mm:ss) UTC,Instrument flags,absolute air pressure of the measurement (hPa),sample flow rate (lpm),inlet stack bypass flow (lpm),air temperature of the measurement (°C),ambient temperature measured by the external sensor (°C),aerosol sample conditioner tube jacket temperature (°C),OPC LED temperature (°C),internal box temperature (°C),relative humidity of the measurement (%),span deviation,mass concentration of particles derived from Lorenz-Mie calculation of OPC scattering (μg/m³),mass concentration of particles derived from Lorenz-Mie calculation of OPC scattering (μg/m³),mass concentration of particles derived from Lorenz-Mie calculation of OPC scattering (μg/m³)
DateTimeUTC,F1_M11,P_M11,Q1_M11,Q2_M11,T1_M11,T2_M11,T3_M11,T4_M11,T5_M11,U1_M11,ZSPAN_M11,X0_M11,X2_M11,X1_M11
2023-06-05 06:00:00,SystemResetWarning,0835.5,4.99,000.00,030.4,028.8,000.0,038.8,032.0,31.6,0001.4,0006.14,0004.43,0004.27
2023-06-05 06:01:00,SystemResetWarning,0835.5,4.99,000.00,030.4,028.8,000.0,038.8,032.0,31.7,0000.9,0006.14,0004.42,0004.26
2023-06-05 06:02:00,SystemResetWarning,0835.5,5.00,000.00,030.4,028.8,000.0,038.8,032.0,31.7,0001.0,0006.26,0004.45,0004.26
2023-06-05 06:03:00,SystemResetWarning,0835.5,5.00,000.00,030.4,028.8,000.0,038.8,032.0,31.7,0001.2,0006.38,0004.48,0004.28
2023-06-05 06:04:00,SystemResetWarning,0835.5,4.99,000.00,030.4,028.8,000.0,038.8,032.0,31.7,0001.6,0006.59,0004.52,0004.30
2023-06-05 06:05:00,SystemResetWarning,0835.5,5.00,000.00,030.4,028.8,000.0,038.8,032.0,31.7,0001.9,0006.98,0004.58,0004.34
2023-06-05 06:06:00,SystemResetWarning,0835.5,5.00,000.00,030.4,028.8,000.0,038.8,032.0,31.7,0001.2,0007.10,0004.64,0004.38
2023-06-05 06:07:00,SystemResetWarning,0835.5,5.00,000.00,030.4,028.8,000.0,038.8,032.0,31.8,0000.9,0007.29,0004.70,0004.42
2023-06-05 06:08:00,SystemResetWarning,0835.6,5.00,000.00,030.4,028.8,000.0,038.8,032.0,31.8,0001.1,0007.36,0004.75,0004.46
2023-06-05 06:09:00,SystemResetWarning,0835.5,5.00,000.00,030.4,028.8,000.0,038.8,032.0,31.8,0000.7,0007.39,0004.78,0004.50
2023-06-05 06:10:00,SystemResetWarning,0835.5,5.00,000.00,030.4,028.8,000.0,038.8,032.0,31.8,0000.2,0007.49,0004.84,0004.52
2023-06-05 06:11:00,SystemResetWarning,0835.6,5.00,000.00,030.4,028.8,000.0,038.8,032.0,31.8,-000.2,0007.99,0004.90,0004.55
2023-06-05 06:12:00,SystemResetWarning,0835.5,5.00,000.00,030.4,028.8,000.0,038.8,032.0,31.8,0000.2,0008.45,0004.93,0004.56
2023-06-05 06:13:00,SystemResetWarning,0835.5,5.01,000.00,030.4,028.8,000.0,038.8,032.0,31.7,0000.7,0008.45,0004.93,0004.56
2023-06-05 06:14:00,SystemResetWarning,0835.5,5.01,000.00,030.4,028.8,000.0,038.8,032.0,31.7,0001.2,0008.58,0004.93,0004.54
2023-06-05 06:15:00,SystemResetWarning,0835.5,5.00,000.00,030.4,028.8,000.0,038.8,032.0,31.7,0001.2,0008.94,0004.94,0004.54
2023-06-05 06:16:00,SystemResetWarning,0835.5,5.00,000.00,030.4,028.8,000.0,038.8,032.0,31.7,0000.8,0009.05,0004.91,0004.52
2023-06-05 06:17:00,SystemResetWarning,0835.5,5.00,000.00,030.4,028.8,000.0,038.8,032.0,31.7,0001.1,0009.06,0004.89,0004.49
2023-06-05 06:18:00,SystemResetWarning,0835.5,4.99,000.00,030.4,028.8,000.0,038.8,032.0,31.6,0001.4,0008.98,0004.85,0004.46
2023-06-05 06:19:00,SystemResetWarning,0835.5,4.99,000.00,030.4,028.8,000.0,038.8,032.0,31.6,0000.9,0008.93,0004.80,0004.41
2023-06-05 06:20:00,SystemResetWarning,0835.4,5.00,000.00,030.4,028.8,000.0,038.8,032.0,31.7,0000.5,0008.90,0004.76,0004.36
2023-06-05 06:21:00,SystemResetWarning,0835.4,5.00,000.00,030.4,028.8,000.0,038.8,032.0,31.6,0000.8,0009.38,0004.72,0004.31
2023-06-05 06:22:00,SystemResetWarning,0835.4,5.00,000.00,030.4,028.8,000.0,038.8,032.0,31.6,0001.0,0009.36,0004.66,0004.26
2023-06-05 06:23:00,SystemResetWarning,0835.4,5.00,000.00,030.4,028.8,000.0,038.8,032.0,31.6,0000.6,0008.74,0004.62,0004.23
2023-06-05 06:24:00,SystemResetWarning,0835.4,5.00,000.00,030.4,028.9,000.0,038.8,032.0,31.6,0000.5,0008.74,0004.60,0004.20
2023-06-05 06:25:00,SystemResetWarning,0835.4,5.00,000.00,030.4,028.9,000.0,038.8,032.0,31.6,0000.2,0008.69,0004.60,0004.19
2023-06-05 06:26:00,SystemResetWarning,0835.4,5.00,000.00,030.4,028.9,000.0,038.8,032.0,31.5,0000.1,0008.18,0004.56,0004.17
2023-06-05 06:27:00,SystemResetWarning,0835.5,4.98,000.00,030.4,028.9,000.0,038.8,032.0,31.5,0000.3,0007.83,0004.52,0004.16
2023-06-05 06:28:00,SystemResetWarning,0835.5,5.01,000.00,030.4,028.9,000.0,038.8,032.0,31.5,0000.1,0007.69,0004.51,0004.16
2023-06-05 06:29:00,SystemResetWarning,0835.5,5.01,000.00,030.4,028.9,000.0,038.8,032.0,31.5,-000.0,0007.73,0004.53,0004.18
2023-06-05 06:30:00,SystemResetWarning,0835.5,5.00,000.00,030.4,028.9,000.0,038.8,032.0,31.5,0000.4,0008.04,0004.58,0004.21
2023-06-05 06:31:00,SystemResetWarning,0835.5,5.00,000.00,030.4,028.9,000.0,038.8,032.0,31.5,0001.1,0008.11,0004.61,0004.23
2023-06-05 06:32:00,SystemResetWarning,0835.5,5.00,000.00,030.4,028.9,000.0,038.8,032.0,31.5,0001.5,0007.90,0004.62,0004.27
2023-06-05 06:33:00,SystemResetWarning,0835.5,4.99,000.00,030.4,028.9,000.0,038.8,032.0,31.4,0001.8,0008.06,0004.64,0004.31
2023-06-05 06:34:00,SystemResetWarning,0835.5,4.99,000.00,030.4,028.9,000.0,038.8,032.0,31.2,0002.1,0008.05,0004.62,0004.29
2023-06-05 06:35:00,SystemResetWarning,0835.5,5.01,000.00,030.4,028.9,000.0,038.8,032.0,31.2,0000.5,0008.20,0004.59,0004.25
2023-06-05 06:36:00,SystemResetWarning,0835.5,5.00,000.00,030.4,028.9,000.0,038.8,032.0,31.2,0000.0,0008.65,0004.55,0004.24
2023-06-05 06:37:00,SystemResetWarning,0835.5,5.00,000.00,030.4,028.9,000.0,038.8,032.0,30.7,0000.0,0009.25,0004.47,0004.15
2023-06-05 06:38:00,SystemResetWarning,0835.6,5.00,000.00,030.4,028.9,000.0,038.8,032.0,30.4,0000.0,0009.20,0004.34,0004.01
2023-06-05 06:39:00,SystemResetWarning,0835.5,4.99,000.00,030.4,028.9,000.0,038.8,032.0,30.4,0000.0,0009.06,0004.18,0003.86
2023-06-05 06:40:00,SystemResetWarning,0835.5,5.00,000.00,030.4,028.9,000.0,038.8,032.0,30.4,0000.0,0008.94,0004.02,0003.72
2023-06-05 06:41:00,SystemResetWarning,0835.5,4.99,000.00,030.4,028.9,000.0,038.8,032.0,30.3,0000.0,0008.56,0003.87,0003.59
2023-06-05 06:42:00,SystemResetWarning,0835.5,5.00,000.00,030.4,028.9,000.0,038.8,032.0,30.4,0000.0,0008.32,0003.73,0003.47
2023-06-05 06:43:00,SystemResetWarning,0835.4,5.01,000.00,030.4,028.9,000.0,038.8,032.0,30.6,0000.0,0008.16,0003.63,0003.38
2023-06-05 06:44:00,SystemResetWarning,0835.4,5.01,000.00,030.4,028.9,000.0,038.8,032.0,30.7,0000.0,0007.39,0003.57,0003.32
2023-06-05 06:45:00,SystemResetWarning,0835.4,5.00,000.00,030.4,028.9,000.0,038.8,032.0,30.3,0000.0,0007.30,0003.50,0003.25
2023-06-05 06:46:00,SystemResetWarning,0835.4,4.99,000.00,030.4,028.9,000.0,038.8,032.0,30.3,0000.0,0006.99,0003.42,0003.19
2023-06-05 06:47:00,SystemResetWarning,0835.5,5.00,000.00,030.4,028.9,000.0,038.8,032.0,30.3,0000.0,0005.92,0003.32,0003.11
2023-06-05 06:48:00,SystemResetWarning,0835.5,5.00,000.00,030.4,028.9,000.0,038.8,032.1,30.3,0000.0,0004.54,0003.30,0003.09
2023-06-05 06:49:00,SystemResetWarning,0835.5,5.00,000.00,030.4,028.9,000.0,038.8,032.1,30.1,0000.0,0004.52,0003.30,0003.10
2023-06-05 06:50:00,SystemResetWarning,0835.4,5.00,000.00,030.4,028.9,000.0,038.8,032.1,29.9,0000.0,0005.13,0003.33,0003.12
2023-06-05 06:51:00,SystemResetWarning,0835.4,5.00,000.00,030.4,028.9,000.0,038.8,032.1,29.8,0000.0,0005.10,0003.33,0003.11
2023-06-05 06:52:00,SystemResetWarning,0835.5,5.00,000.00,030.4,028.9,000.0,038.8,032.1,29.7,0000.0,0004.95,0003.28,0003.07
2023-06-05 06:53:00,SystemResetWarning,0835.5,5.00,000.00,030.4,028.9,000.0,038.8,032.1,29.6,0000.0,0004.90,0003.24,0002.99
2023-06-05 06:54:00,SystemResetWarning,0835.5,5.00,000.00,030.4,029.0,000.0,038.8,032.0,29.6,0000.0,0004.84,0003.18,0002.86
2023-06-05 06:55:00,SystemResetWarning,0835.4,5.00,000.00,030.4,029.0,000.0,038.8,032.1,29.5,0000.0,0004.71,0003.06,0002.67
2023-06-05 06:56:00,SystemResetWarning,0835.5,5.00,000.00,030.4,028.9,000.0,038.8,032.1,29.5,0000.0,0004.64,0002.90,0002.52
2023-06-05 06:57:00,SystemResetWarning,0835.5,5.00,000.00,030.4,028.9,000.0,038.8,032.1,29.5,0000.0,0004.54,0002.81,0002.45
2023-06-05 06:58:00,SystemResetWarning,0835.4,4.99,000.00,030.5,028.8,000.0,038.8,032.0,29.6,0000.0,0004.53,0002.75,0002.36
2023-06-05 06:59:00,SystemResetWarning,0835.4,4.99,000.00,030.4,027.3,000.0,038.8,031.8,29.6,0000.0,0004.25,0002.62,0002.28
